{"data":{"norad_id":68767,"epoch":"2026-05-25T04:00:03.998880Z","epoch_age_seconds":53937,"freshness":"FRESH","line1":"1 68767U 26086B   26145.16671295 -.01922364  00000+0 -20877-1 0  9994","line2":"2 68767  97.2846 182.0095 0001343  87.4092 223.1634 15.66510257  6069","mean_motion":15.66510257,"eccentricity":0.0001343,"inclination_deg":97.2846,"raan_deg":182.0095,"arg_perigee_deg":87.4092,"mean_anomaly_deg":223.1634,"bstar":-0.020877,"rev_number":606,"period_min":91.924070944656,"perigee_km":367.99264538372,"apogee_km":369.80489919216,"semimajor_km":6747.0357722879,"source":"CELESTRAK","updated_at":"2026-05-25T13:38:22.033197Z"}}